カタログに戻る

COSMOS 2041

運用中軍事PO
NORAD 20235·PAYLOAD·🇷🇺 Russia

打ち上げ Sep 14, 1989 から Plesetsk Cosmodrome

Loading…

次のパス (今後24時間)

TLE

最新Source: Space-Track

元期: Sep 14, 2026, 10:55 UTC

1 20235U 89074D   26257.45511056  .00000040  00000-0  15970-3 0  9998
2 20235  82.5866 152.4868 0007309 254.3343 280.9868 12.64847766707798

AllMySatでCOSMOS 2041をリアルタイム追跡

Download on the App Store